カタログに戻る

DMSP 5D-2 F11 DEB

運用中SSO
NORAD 28312·DEBRIS·🇺🇸 United States

打ち上げ Nov 28, 1991 から Vandenberg Space Force Base

Loading…

次のパス (今後24時間)

TLE

最新Source: Space-Track

元期: Sep 13, 2026, 00:44 UTC

1 28312U 91082Z   26256.03074794  .00000554  00000-0  24934-3 0  9990
2 28312  98.6001 287.4830 0010407 206.3853 153.6799 14.26172167159757

AllMySatでDMSP 5D-2 F11 DEBをリアルタイム追跡

Download on the App Store